Location: Saint-Palais-sur-Mer
(45.6429°N, 1.0859°W)
Time: 03:21:13
(UTC+02:00)

METEOR M2 - Pass Details

Date: 30 April 2024
Orbit: 817 x 827 km, 98.4° (Epoch: 27 May)

Event Time Altitude Azimuth Distance (km) Brightness Sun altitude
Rises 06:06:00 0° 33° (NNE) 3,357 ? -8.2°
Reaches altitude 10° 06:10:03 10° 64° (ENE) 2,416 ? -7.6°
Maximum altitude 06:12:05 12° 86° (E) 2,266 ? -7.3°
Drops below altitude 10° 06:14:06 10° 109° (ESE) 2,409 ? -7.0°
Sets 06:18:07 0° 139° (SE) 3,334 ? -6.4°
